Home   Weather   Lancaster   Past weeks
Flag for USA

Past Weather in Lancaster, Pennsylvania, USA — Yesterday and Last 2 Weeks

Now
76 °F

Passing clouds.


Feels Like: 77 °F
Forecast: 89 / 67 °F
Wind: No wind

Location: Lancaster Airport

Current Time: Jun 27, 2019 at 12:27:55 am

Latest Report: Jun 26, 2019 at 11:53 pm


Visibility: 10 mi

Pressure: 30.06 "Hg

Humidity: 77%

Dew Point: 68 °F

Location of LancasterLocation

Past Weather in Lancaster — Graph

°F

Lancaster Temperature Yesterday

Maximum temperature yesterday: 88 °F (at 3:53 pm)
Minimum temperature yesterday: 65 °F (at 5:53 am)
Average temperature yesterday: 78 °F

High & Low Weather Summary for the Past Weeks

 TemperatureHumidityPressure
High88 °F (Jun 26, 3:53 pm)100% (Jun 18, 6:53 am)30.19 "Hg (Jun 18, 6:53 am)
Low52 °F (Jun 15, 4:53 am)35% (Jun 15, 1:53 pm)29.49 "Hg (Jun 21, 3:53 am)
Average72 °F73%29.88 "Hg
* Reported Jun 11 10:53 pm — Jun 26 10:53 pm, Lancaster. Weather by CustomWeather, © 2019

Note: Actual official high and low records may vary slightly from our data, if they occured in-between our weather recording intervals... More about our weather records

Advertising

Lancaster Weather History for the Previous 24 Hours

Scroll right to see more
 ConditionsComfort  
Time TempWeatherWind HumidityBarometerVisibility
10:53 pm
Wed, Jun 26
79 °FClear.No wind67%30.05 "Hg10 mi
9:53 pm79 °FClear.No wind69%30.04 "Hg10 mi
8:53 pm84 °FClear.5 mph55%30.02 "Hg10 mi
7:53 pm85 °FSunny.6 mph53%30.02 "Hg10 mi
6:53 pm87 °FSunny.8 mph48%30.01 "Hg10 mi
5:53 pm87 °FPassing clouds.10 mph46%30.00 "Hg10 mi
4:53 pm88 °FPassing clouds.13 mph46%30.01 "Hg10 mi
3:53 pm88 °FPassing clouds.13 mph45%30.02 "Hg10 mi
2:53 pm86 °FScattered clouds.8 mph49%30.03 "Hg10 mi
1:53 pm86 °FSunny.N/A49%30.03 "Hg10 mi
12:53 pm84 °FSunny.7 mph55%30.04 "Hg10 mi
11:53 am83 °FSunny.7 mph57%30.06 "Hg10 mi
10:53 am81 °FSunny.10 mph60%30.07 "Hg10 mi
9:53 am79 °FSunny.5 mph60%30.06 "Hg10 mi
8:53 am77 °FSunny.5 mph64%30.07 "Hg10 mi
7:53 am73 °FSunny.No wind74%30.06 "Hg10 mi
6:53 am68 °FSunny.5 mph84%30.05 "Hg10 mi
5:53 am65 °FSunny.6 mph87%30.03 "Hg10 mi
4:53 am67 °FClear.No wind81%30.01 "Hg10 mi
3:53 am67 °FClear.3 mph81%29.99 "Hg10 mi
2:53 am68 °FClear.6 mph78%29.98 "Hg10 mi
1:53 am71 °FClear.6 mph71%29.97 "Hg10 mi
12:53 am70 °FClear.5 mph76%29.96 "Hg10 mi
Weather by CustomWeather, © 2019

See weather overview